When you browse on this site, cookies collect data to enhance your experience and personalize the content and advertising you see.
Visit our Privacy Policy to learn more. By continuing to use the site, you agree to this use of cookies and data.
  • en France
  • Liste des pays
  • À 7 jours
  • Température de l'eau
  • Carte météo
  • Widgets météo
  • user-avatar
    Se connecter

    Météo par heure à Mansoa

    Ce jour, 27 Mai, Mercredi

    Heure Température Précipitation Vent Pression Humidité
    00:00 +25°C° 0 mm 2 m/s 757 mmHg 82%
    01:00 +25°C° 0 mm 2 m/s 757 mmHg 83%
    02:00 +25°C° 0 mm 2 m/s 757 mmHg 85%
    03:00 +25°C° 0 mm 1 m/s 757 mmHg 85%
    04:00 +25°C° 0 mm 1 m/s 757 mmHg 85%
    05:00 +25°C° 0 mm 1 m/s 757 mmHg 85%
    06:00 +27°C° 0 mm 1 m/s 758 mmHg 75%
    07:00 +28°C° 0 mm 1 m/s 758 mmHg 65%
    08:00 +30°C° 0 mm 1 m/s 758 mmHg 55%
    09:00 +34°C° 0 mm 2 m/s 758 mmHg 48%
    10:00 +36°C° 0 mm 2 m/s 758 mmHg 40%
    11:00 +38°C° 0 mm 3 m/s 758 mmHg 32%
    12:00 +38°C° 0 mm 3 m/s 757 mmHg 33%
    13:00 +38°C° 0 mm 4 m/s 757 mmHg 34%
    14:00 +38°C° 0 mm 4 m/s 756 mmHg 35%
    15:00 +37°C° 0 mm 5 m/s 756 mmHg 38%
    16:00 +36°C° 0 mm 5 m/s 755 mmHg 40%
    17:00 +35°C° 0 mm 5 m/s 755 mmHg 43%
    18:00 +33°C° 0 mm 4 m/s 756 mmHg 50%
    19:00 +30°C° 0 mm 4 m/s 756 mmHg 58%
    20:00 +29°C° 0 mm 4 m/s 757 mmHg 65%
    21:00 +28°C° 0 mm 3 m/s 757 mmHg 70%
    22:00 +27°C° 0 mm 3 m/s 758 mmHg 75%
    23:00 +26°C° 0 mm 2 m/s 758 mmHg 79%

    Demain, 28 Mai, Jeudi

    Heure Température Précipitation Vent Pression Humidité
    00:00 +26°C° 0 mm 2 m/s 758 mmHg 80%
    01:00 +26°C° 0 mm 2 m/s 757 mmHg 80%
    02:00 +26°C° 0 mm 2 m/s 757 mmHg 81%
    03:00 +26°C° 0 mm 1 m/s 757 mmHg 82%
    04:00 +26°C° 0 mm 1 m/s 757 mmHg 83%
    05:00 +26°C° 0 mm 1 m/s 757 mmHg 84%
    06:00 +27°C° 0 mm 1 m/s 758 mmHg 77%
    07:00 +29°C° 0 mm 2 m/s 758 mmHg 70%
    08:00 +30°C° 0 mm 2 m/s 759 mmHg 62%
    09:00 +33°C° 0 mm 3 m/s 758 mmHg 56%
    10:00 +35°C° 0 mm 3 m/s 758 mmHg 50%
    11:00 +37°C° 0 mm 4 m/s 758 mmHg 44%
    12:00 +37°C° 0 mm 4 m/s 757 mmHg 43%
    13:00 +38°C° 0 mm 4 m/s 756 mmHg 41%
    14:00 +40°C° 0 mm 4 m/s 755 mmHg 39%
    15:00 +37°C° 0 mm 5 m/s 755 mmHg 43%
    16:00 +36°C° 0 mm 5 m/s 755 mmHg 46%
    17:00 +35°C° 0 mm 5 m/s 755 mmHg 50%
    18:00 +33°C° 0 mm 5 m/s 756 mmHg 56%
    19:00 +32°C° 0 mm 5 m/s 756 mmHg 62%
    20:00 +29°C° 0 mm 4 m/s 757 mmHg 68%
    21:00 +28°C° 0 mm 3 m/s 757 mmHg 73%
    22:00 +27°C° 0 mm 2 m/s 757 mmHg 78%
    23:00 +26°C° 0 mm 1 m/s 758 mmHg 83%

    Après-demain, 29 Mai, Vendredi

    Heure Température Précipitation Vent Pression Humidité
    00:00 +26°C° 0 mm 2 m/s 757 mmHg 84%
    01:00 +26°C° 0 mm 2 m/s 757 mmHg 86%
    02:00 +26°C° 0 mm 2 m/s 757 mmHg 87%
    03:00 +25°C° 0 mm 2 m/s 757 mmHg 89%
    04:00 +25°C° 0 mm 1 m/s 757 mmHg 90%
    05:00 +24°C° 0 mm 1 m/s 757 mmHg 91%
    06:00 +27°C° 0 mm 1 m/s 757 mmHg 80%
    07:00 +29°C° 0 mm 1 m/s 757 mmHg 68%
    08:00 +31°C° 0 mm 1 m/s 758 mmHg 57%
    09:00 +34°C° 0 mm 1 m/s 757 mmHg 48%
    10:00 +37°C° 0 mm 1 m/s 757 mmHg 39%
    11:00 +40°C° 0 mm 2 m/s 757 mmHg 30%
    12:00 +41°C° 0 mm 2 m/s 756 mmHg 30%
    13:00 +42°C° 0 mm 3 m/s 755 mmHg 30%
    14:00 +43°C° 0 mm 3 m/s 754 mmHg 30%
    15:00 +41°C° 0 mm 4 m/s 754 mmHg 33%
    16:00 +39°C° 0 mm 5 m/s 754 mmHg 36%
    17:00 +36°C° 0 mm 6 m/s 753 mmHg 39%
    18:00 +34°C° 0 mm 5 m/s 754 mmHg 44%
    19:00 +32°C° 0 mm 5 m/s 755 mmHg 49%
    20:00 +29°C° 0 mm 4 m/s 755 mmHg 54%
    21:00 +28°C° 0 mm 3 m/s 756 mmHg 59%
    22:00 +27°C° 0 mm 2 m/s 756 mmHg 65%
    23:00 +26°C° 0 mm 1 m/s 757 mmHg 70%

    30 Mai, Samedi

    Heure Température Précipitation Vent Pression Humidité
    00:00 +26°C° 0 mm 1 m/s 756 mmHg 73%
    01:00 +25°C° 0 mm 1 m/s 756 mmHg 75%
    02:00 +25°C° 0 mm 1 m/s 755 mmHg 78%
    03:00 +24°C° 0 mm 1 m/s 756 mmHg 80%
    04:00 +24°C° 0 mm 1 m/s 756 mmHg 81%
    05:00 +24°C° 0 mm 1 m/s 756 mmHg 83%
    06:00 +26°C° 0 mm 1 m/s 756 mmHg 72%
    07:00 +28°C° 0 mm 1 m/s 756 mmHg 62%
    08:00 +31°C° 0 mm 1 m/s 757 mmHg 52%
    09:00 +34°C° 0 mm 2 m/s 757 mmHg 46%
    10:00 +37°C° 0 mm 2 m/s 757 mmHg 40%
    11:00 +39°C° 0 mm 3 m/s 756 mmHg 33%
    12:00 +39°C° 0 mm 3 m/s 756 mmHg 33%
    13:00 +41°C° 0 mm 4 m/s 755 mmHg 33%
    14:00 +41°C° 0 mm 4 m/s 754 mmHg 33%
    15:00 +40°C° 0 mm 5 m/s 754 mmHg 38%
    16:00 +37°C° 0 mm 5 m/s 754 mmHg 43%
    17:00 +35°C° 0 mm 6 m/s 753 mmHg 48%
    18:00 +34°C° 0 mm 5 m/s 754 mmHg 55%
    19:00 +32°C° 0 mm 4 m/s 755 mmHg 62%
    20:00 +29°C° 0 mm 3 m/s 756 mmHg 69%
    21:00 +29°C° 0 mm 3 m/s 757 mmHg 72%
    22:00 +29°C° 0 mm 2 m/s 757 mmHg 75%
    23:00 +28°C° 0 mm 2 m/s 758 mmHg 78%

    31 Mai, Dimanche

    Heure Température Précipitation Vent Pression Humidité
    00:00 +28°C° 0 mm 2 m/s 758 mmHg 77%
    01:00 +28°C° 0 mm 3 m/s 757 mmHg 77%
    02:00 +28°C° 0 mm 3 m/s 756 mmHg 77%
    03:00 +28°C° 0 mm 3 m/s 756 mmHg 78%
    04:00 +28°C° 0 mm 2 m/s 757 mmHg 79%
    05:00 +28°C° 0 mm 1 m/s 757 mmHg 80%
    06:00 +29°C° 0 mm 1 m/s 757 mmHg 74%
    07:00 +30°C° 0 mm 1 m/s 758 mmHg 69%
    08:00 +30°C° 0 mm 0 m/s 758 mmHg 64%
    09:00 +32°C° 0 mm 0 m/s 758 mmHg 55%
    10:00 +36°C° 0 mm 1 m/s 758 mmHg 46%
    11:00 +40°C° 0 mm 1 m/s 758 mmHg 37%
    12:00 +40°C° 0 mm 1 m/s 757 mmHg 36%
    13:00 +40°C° 0 mm 2 m/s 756 mmHg 35%
    14:00 +40°C° 0 mm 3 m/s 756 mmHg 34%
    15:00 +39°C° 0 mm 3 m/s 755 mmHg 37%
    16:00 +38°C° 0 mm 3 m/s 755 mmHg 39%
    17:00 +37°C° 0 mm 3 m/s 755 mmHg 42%
    18:00 +35°C° 0 mm 3 m/s 755 mmHg 48%
    19:00 +33°C° 0 mm 3 m/s 756 mmHg 54%
    20:00 +30°C° 0 mm 3 m/s 757 mmHg 60%
    21:00 +30°C° 0.1 mm 3 m/s 757 mmHg 63%
    22:00 +29°C° 0.1 mm 2 m/s 758 mmHg 65%
    23:00 +28°C° 0.1 mm 2 m/s 758 mmHg 68%

    1 Juin, Lundi

    Heure Température Précipitation Vent Pression Humidité
    00:00 +28°C° 1 mm 2 m/s 758 mmHg 71%
    01:00 +27°C° 1 mm 2 m/s 758 mmHg 74%
    02:00 +27°C° 1 mm 2 m/s 758 mmHg 76%
    03:00 +27°C° 0.5 mm 1 m/s 758 mmHg 76%
    04:00 +27°C° 0.5 mm 1 m/s 758 mmHg 76%
    05:00 +25°C° 0.5 mm 0 m/s 758 mmHg 76%
    06:00 +25°C° 0 mm 0 m/s 759 mmHg 74%
    07:00 +26°C° 0 mm 0 m/s 759 mmHg 73%
    08:00 +26°C° 0 mm 0 m/s 759 mmHg 71%
    09:00 +29°C° 0 mm 1 m/s 759 mmHg 67%
    10:00 +29°C° 0 mm 2 m/s 759 mmHg 64%
    11:00 +30°C° 0 mm 3 m/s 759 mmHg 61%
    12:00 +30°C° 0 mm 2 m/s 758 mmHg 58%
    13:00 +31°C° 0 mm 2 m/s 758 mmHg 56%
    14:00 +31°C° 0 mm 1 m/s 757 mmHg 53%
    15:00 +31°C° 0 mm 1 m/s 757 mmHg 54%
    16:00 +31°C° 0 mm 1 m/s 756 mmHg 56%
    17:00 +30°C° 0 mm 1 m/s 756 mmHg 57%
    18:00 +30°C° 0 mm 1 m/s 756 mmHg 57%
    19:00 +30°C° 0 mm 1 m/s 757 mmHg 56%
    20:00 +29°C° 0 mm 1 m/s 757 mmHg 56%
    21:00 +29°C° 0 mm 2 m/s 758 mmHg 54%
    22:00 +29°C° 0 mm 2 m/s 758 mmHg 51%
    23:00 +28°C° 0 mm 2 m/s 758 mmHg 48%
    Voir plus